Home   Weather   Kosti   Past weeks
Flag for Sudan

Past Weather in Kosti, Sudan — Yesterday and Last 2 Weeks

Now
99 °F

Sunny.


Feels Like: 93 °F
Forecast: 107 / 74 °F
Wind: 14 mph from North

Location: Khartoum Airport

Current Time: Mar 31, 2020 at 1:13:49 pm

Latest Report: Mar 31, 2020 at 12:00 pm


Visibility: 10 mi

Pressure: 29.86 "Hg

Humidity: 7%

Dew Point: 23 °F

Location of KostiLocation

Past Weather in Kosti — Graph

°F

Kosti Temperature Yesterday

Maximum temperature yesterday: 99 °F (at 2:00 pm)
Minimum temperature yesterday: 70 °F (at 4:00 am)
Average temperature yesterday: 85 °F

High & Low Weather Summary for the Past Weeks

 TemperatureHumidityPressure
High109 °F (Mar 27, 1:00 pm)26% (Mar 17, 5:00 am)30.09 "Hg (Mar 17, 5:00 am)
Low63 °F (Mar 20, 6:00 am)4% (Mar 23, 11:30 am)29.68 "Hg (Mar 26, 3:30 pm)
Average86 °F11%29.86 "Hg
* Reported Mar 16 12:00 pm — Mar 31 12:00 pm, Kosti. Weather by CustomWeather, © 2020

Note: Actual official high and low records may vary slightly from our data, if they occured in-between our weather recording intervals... More about our weather records

Kosti Weather History for the Previous 24 Hours

Scroll right to see more
 ConditionsComfort  
Time TempWeatherWind HumidityBarometerVisibility
12:00 pm
Tue, Mar 31
99 °FSunny.14 mph7%29.86 "Hg10 mi
11:00 am97 °FSunny.13 mph6%29.89 "Hg10 mi
10:00 am93 °FSunny.12 mph8%29.92 "Hg10 mi
9:00 am88 °FSunny.8 mph9%29.92 "Hg10 mi
8:00 am82 °FSunny.9 mph11%29.92 "Hg10 mi
7:00 am79 °FSunny.12 mph12%29.89 "Hg10 mi
6:00 am75 °FSunny.6 mph14%29.86 "Hg10 mi
5:00 am77 °FClear.8 mph13%29.83 "Hg10 mi
4:00 am77 °FClear.7 mph13%29.83 "Hg10 mi
3:00 am77 °FClear.7 mph11%29.83 "Hg10 mi
2:00 am81 °FClear.7 mph7%29.83 "Hg10 mi
1:30 am81 °FClear.7 mph9%29.83 "Hg10 mi
1:00 am81 °FClear.6 mph7%29.83 "Hg10 mi
12:00 am82 °FClear.7 mph9%29.83 "Hg10 mi
11:00 pm
Mon, Mar 30
82 °FClear.7 mph9%29.86 "Hg10 mi
10:00 pm86 °FClear.7 mph9%29.83 "Hg10 mi
9:00 pm88 °FClear.7 mph11%29.83 "Hg10 mi
8:00 pm86 °FClear.5 mph9%29.83 "Hg10 mi
7:00 pm90 °FClear.6 mph9%29.80 "Hg10 mi
6:00 pm95 °FSunny.8 mph7%29.80 "Hg10 mi
5:00 pm99 °FSunny.12 mph7%29.77 "Hg10 mi
4:00 pm99 °FSunny.16 mph6%29.77 "Hg10 mi
3:00 pm99 °FSunny.12 mph7%29.80 "Hg10 mi
2:00 pm99 °FSunny.8 mph7%29.80 "Hg10 mi
1:00 pm97 °FSunny.12 mph5%29.83 "Hg10 mi
Weather by CustomWeather, © 2020

See weather overview

Advertising